Date,TemperatureHighF,TemperatureAvgF,TemperatureLowF,DewpointHighF,DewpointAvgF,DewpointLowF,HumidityHigh,HumidityAvg,HumidityLow,PressureMaxIn,PressureMinIn,WindSpeedMaxMPH,WindSpeedAvgMPH,GustSpeedMaxMPH,PrecipitationSumIn
2014-1-1,63,52,43,57,50,41,98,93,79,30.24,29.95,3,1,9,0.12
2014-1-2,59,52,36,58,45,25,99,79,55,30.24,29.82,5,2,25,0.22
2014-1-3,45,34,28,24,19,12,83,56,27,30.33,30.22,6,2,19,0.00
2014-1-4,61,45,28,49,38,23,86,75,58,30.21,29.95,4,1,10,0.00
2014-1-5,64,56,44,59,51,37,91,83,75,29.96,29.77,9,2,26,0.00
2014-1-6,43,32,24,36,14,2,77,50,24,30.49,29.97,4,2,21,0.00
2014-1-7,36,26,17,14,6,-1,69,46,25,30.57,30.42,3,1,16,0.00
2014-1-8,50,34,21,30,19,13,77,56,25,30.43,30.26,4,1,11,0.00
2014-1-9,64,47,32,48,36,20,86,64,52,30.27,30.13,5,1,12,0.00
2014-1-10,66,57,48,66,55,44,99,95,85,30.12,29.82,6,2,17,0.03
2014-1-11,75,63,45,66,51,27,100,71,26,30.00,29.74,9,4,24,0.88
2014-1-12,64,50,37,45,39,34,94,68,34,30.14,30.00,7,1,13,0.00
2014-1-13,61,58,47,60,56,45,99,95,84,30.01,29.77,7,3,15,0.72
2014-1-14,64,54,45,58,45,37,100,75,39,30.01,29.83,7,2,14,0.01
2014-1-15,54,47,36,46,28,13,84,51,20,30.12,29.97,5,2,21,0.00
2014-1-16,51,42,27,42,30,17,92,64,31,30.15,30.00,7,2,16,0.00
2014-1-17,61,51,35,46,31,14,85,51,22,30.15,30.00,8,2,19,0.00
2014-1-18,51,43,28,44,25,14,83,53,23,30.23,30.02,7,2,15,0.00
2014-1-19,63,53,41,49,43,34,94,73,33,30.14,30.00,4,1,17,0.02
2014-1-20,59,48,35,52,44,34,99,87,57,30.04,29.89,5,2,12,0.00
2014-1-21,60,52,34,57,34,17,99,56,22,30.11,29.83,7,3,27,0.01
2014-1-22,47,37,26,34,23,13,85,59,26,30.17,30.06,6,1,14,0.00
2014-1-23,57,44,32,34,26,19,93,54,26,30.44,30.09,6,2,20,0.00
2014-1-24,38,32,29,26,17,8,84,56,37,30.49,30.23,7,2,23,0.01
2014-1-25,51,42,31,42,36,27,94,81,64,30.23,29.94,5,2,14,0.01
2014-1-26,56,46,36,48,41,34,95,82,47,29.97,29.81,6,1,13,0.00
2014-1-27,67,58,46,61,52,24,98,79,41,30.00,29.78,8,2,20,0.24
2014-1-28,46,32,25,27,19,8,91,63,31,30.21,29.97,6,3,22,0.00
2014-1-29,34,27,22,18,9,3,74,48,27,30.34,30.19,5,2,19,0.01
2014-1-30,46,31,19,27,18,10,89,61,30,30.26,30.05,5,1,11,0.19
2014-1-31,62,43,29,48,37,25,93,79,60,30.10,29.98,5,1,13,0.01
2014-2-1,68,55,38,61,48,-100,99,87,71,30.06,29.94,7,2,18,0.01
2014-2-2,66,62,61,65,62,60,100,98,96,29.97,29.83,9,3,21,0.01
2014-2-3,62,51,43,62,48,42,100,90,70,30.03,29.85,9,2,19,0.06
2014-2-4,67,55,43,65,55,42,99,97,90,30.00,29.78,10,4,29,0.03
2014-2-5,63,50,39,63,42,31,99,77,53,30.18,29.84,4,2,20,0.11
2014-2-6,38,35,30,32,28,26,91,78,64,30.26,30.15,6,2,19,0.04
2014-2-7,56,42,29,41,33,26,93,72,46,30.25,30.09,5,2,14,0.01
2014-2-8,62,50,41,49,43,36,96,76,56,30.14,30.01,5,2,12,0.00
2014-2-9,66,54,40,56,48,39,98,83,57,30.09,29.98,7,2,16,0.01
2014-2-10,66,58,49,59,55,48,97,90,76,30.03,29.93,8,3,17,0.02
2014-2-11,49,43,40,48,42,38,98,96,95,30.01,29.91,8,4,19,0.53
2014-2-12,48,43,38,47,42,36,99,95,89,29.91,29.73,8,2,25,0.83
2014-2-13,54,43,36,44,37,32,90,80,52,29.97,29.83,5,2,16,0.00
2014-2-14,58,50,36,53,44,34,96,81,53,29.94,29.76,11,5,21,0.01
2014-2-15,63,51,42,45,39,30,91,65,30,30.10,29.83,4,1,14,0.00
2014-2-16,64,53,37,55,45,34,97,78,33,30.11,30.03,7,2,14,0.00
2014-2-17,69,63,58,63,59,55,97,87,75,30.06,30.00,12,6,22,0.00
2014-2-18,67,62,59,65,61,59,100,97,85,30.09,29.98,6,2,15,0.01
2014-2-19,74,66,62,67,64,62,100,94,72,30.01,29.89,6,3,16,0.02
2014-2-20,76,69,64,70,66,64,100,93,78,29.90,29.79,8,5,20,0.01
2014-2-21,68,58,44,68,40,25,99,58,22,30.03,29.74,12,3,32,1.33
2014-2-22,68,55,43,50,39,30,87,59,26,30.07,29.92,6,2,16,0.00
2014-2-23,68,62,54,66,60,51,99,96,86,29.94,29.85,4,0,11,0.41
2014-2-24,73,62,55,63,54,-100,100,85,53,30.03,29.91,7,1,14,0.01
2014-2-25,69,62,54,62,58,53,99,89,67,29.98,29.82,7,1,14,0.52
2014-2-26,63,49,40,63,44,30,99,85,63,29.96,29.75,5,2,21,1.19
2014-2-27,57,43,31,36,26,15,92,56,22,30.03,29.89,2,0,13,0.00
2014-2-28,60,48,31,51,38,28,96,71,35,30.03,29.93,5,2,17,0.00
2014-3-1,72,63,54,60,57,51,94,81,65,30.09,29.96,8,4,16,0.00
2014-3-2,72,64,53,63,59,53,99,87,64,30.08,29.88,7,4,18,0.01
2014-3-3,64,51,34,63,45,28,99,81,57,30.10,29.82,7,3,23,0.01
2014-3-4,38,35,32,37,32,27,96,87,76,30.14,29.99,4,2,13,0.38
2014-3-5,59,49,38,50,45,38,97,87,73,30.00,29.89,5,2,12,0.07
2014-3-6,61,53,47,55,50,44,99,91,73,29.89,29.78,3,1,15,0.26
2014-3-7,57,50,44,48,44,40,94,82,62,30.00,29.89,7,2,17,0.00
2014-3-8,69,55,42,54,50,41,98,82,57,30.09,29.97,5,1,15,0.00
2014-3-9,70,61,52,58,54,51,98,81,57,30.15,30.02,6,2,13,0.01
2014-3-10,75,63,50,60,55,49,98,78,46,30.08,29.89,7,2,15,0.00
2014-3-11,66,63,60,64,61,57,97,93,81,29.89,29.60,7,2,19,0.40
2014-3-12,68,62,51,63,54,35,99,76,49,30.02,29.61,7,4,24,0.00
2014-3-13,65,51,35,44,36,28,94,60,27,30.21,30.02,6,2,17,0.00
2014-3-14,68,54,39,52,46,38,97,76,50,30.18,30.04,7,2,17,0.00
2014-3-15,68,62,54,64,59,51,96,92,81,30.03,29.78,9,2,21,0.05
2014-3-16,71,66,62,68,65,61,98,95,85,29.78,29.51,18,6,30,1.60
2014-3-17,63,53,45,61,46,38,95,78,59,29.77,29.57,7,3,21,0.03
2014-3-18,56,49,43,48,42,38,85,77,59,29.92,29.73,9,2,19,0.00
2014-3-19,67,59,47,56,53,46,97,80,63,30.04,29.89,8,3,17,0.00
2014-3-20,74,62,53,58,53,46,94,73,42,30.04,29.95,8,2,17,0.00
2014-3-21,74,60,45,58,48,38,97,70,28,30.01,29.91,9,2,19,0.01
2014-3-22,75,64,55,62,59,54,98,86,60,29.97,29.89,10,2,19,0.00
2014-3-23,76,66,54,68,60,45,99,82,62,30.07,29.86,5,3,19,0.01
2014-3-24,66,57,50,51,45,41,88,66,42,30.05,29.86,5,2,14,0.00
2014-3-25,65,55,45,50,31,20,89,45,19,30.17,29.91,8,3,26,0.00
2014-3-26,58,48,34,40,28,21,82,50,27,30.29,30.10,6,2,17,0.00
2014-3-27,68,61,49,63,53,39,97,75,56,30.15,29.92,8,4,29,0.14
2014-3-28,67,63,60,67,62,60,99,98,96,29.94,29.78,5,2,23,3.63
2014-3-29,73,64,56,63,54,39,99,75,37,30.09,29.77,6,2,24,0.62
2014-3-30,70,56,45,51,44,35,91,66,27,30.17,30.04,6,2,17,0.00
2014-3-31,71,58,42,54,47,38,99,72,32,30.07,30.00,9,2,21,0.01
2014-4-1,74,62,51,62,57,50,99,83,62,30.06,29.98,7,2,17,0.01
2014-4-2,77,69,61,67,65,60,97,86,67,30.02,29.95,9,5,24,0.01
2014-4-3,78,72,68,68,66,65,96,84,66,29.95,29.86,10,7,24,0.00
2014-4-4,79,72,68,70,68,66,97,87,74,29.93,29.80,8,3,21,0.11
2014-4-5,69,62,57,66,55,48,97,80,60,29.97,29.86,9,3,20,0.11
2014-4-6,72,64,56,70,62,55,99,95,86,29.89,29.63,9,4,22,0.02
2014-4-7,78,71,60,72,63,51,99,78,42,29.78,29.55,8,3,24,0.26
2014-4-8,65,56,48,54,48,43,95,78,53,29.92,29.71,5,1,17,0.48
2014-4-9,74,60,46,53,46,36,93,65,25,30.14,29.93,4,1,17,0.00
2014-4-10,73,62,48,55,50,42,97,69,32,30.17,30.09,6,2,18,0.00
2014-4-11,76,66,54,63,58,53,97,80,51,30.13,30.03,10,2,20,0.00
2014-4-12,77,68,59,62,26,-100,99,63,48,30.08,29.97,8,2,24,0.01
2014-4-13,77,71,65,68,66,62,96,85,68,30.00,29.85,10,4,24,0.00
2014-4-14,78,69,65,70,60,-100,99,87,78,29.84,29.58,0,0,0,2.21
2014-4-15,65,54,46,49,10,-100,99,50,31,30.08,29.72,4,2,30,0.53
2014-4-16,61,50,36,46,38,29,94,68,32,30.14,30.03,5,2,14,0.00
2014-4-17,69,59,46,60,54,45,97,85,68,30.11,30.03,8,2,19,0.18